This is the latest recevied weather packets stored in our database for station/object SP5EB-3. If no packets are shown the sender has not sent any weather packets the latest 10 day(s).
| Time | Temp. | Humidity | Pressure | Rain* | Wind** | Luminosity | Snow |
|---|---|---|---|---|---|---|---|
| 1778227274 | 11.11° C | 1% | 1015 hPa | - | - | - | - |
| 1778226967 | 11.11° C | 1% | 1015 hPa | - | - | - | - |
| 1778226660 | 11.11° C | 1% | 1014.9 hPa | - | - | - | - |
| 1778226353 | 10.56° C | 1% | 1014.9 hPa | - | - | - | - |
| 1778226046 | 10.56° C | 27% | 1014.9 hPa | - | - | - | - |
| 1778225739 | 10.56° C | 18% | 1014.9 hPa | - | - | - | - |
| 1778225431 | 10.56° C | 1% | 1014.9 hPa | - | - | - | - |
| 1778225125 | 10.56° C | 22% | 1014.9 hPa | - | - | - | - |
| 1778224818 | 10.56° C | 42% | 1014.9 hPa | - | - | - | - |
| 1778224511 | 10.56° C | 20% | 1014.8 hPa | - | - | - | - |
| 1778224204 | 10.56° C | 14% | 1014.8 hPa | - | - | - | - |
| 1778223897 | 10.56° C | 15% | 1014.8 hPa | - | - | - | - |
| 1778222975 | 10.56° C | 70% | 1014.5 hPa | - | - | - | - |
| 1778222668 | 10.56° C | 53% | 1014.6 hPa | - | - | - | - |
| 1778222361 | 10.56° C | 15% | 1014.5 hPa | - | - | - | - |
| 1778222054 | 10.56° C | 65% | 1014.5 hPa | - | - | - | - |
| 1778221746 | 10.56° C | 99% | 1014.5 hPa | - | - | - | - |
| 1778221439 | 10.56° C | 99% | 1014.5 hPa | - | - | - | - |
| 1778221132 | 10.56° C | 99% | 1014.4 hPa | - | - | - | - |
| 1778220826 | 10.56° C | 99% | 1014.3 hPa | - | - | - | - |
| 1778220519 | 10.56° C | 99% | 1014.4 hPa | - | - | - | - |
| 1778220212 | 10.56° C | 99% | 1014.2 hPa | - | - | - | - |
| 1778219904 | 10.56° C | 99% | 1014.2 hPa | - | - | - | - |
| 1778219290 | 10.56° C | 99% | 1014.3 hPa | - | - | - | - |
| 1778218983 | 10.56° C | 99% | 1014.2 hPa | - | - | - | - |
* Rain since midnight (hover to see other rain measurements)
** Current wind speed in m/s (hover to see current wind gust speed)